Location: Unspecified
(43.8044°N, 11.0278°E)
Time: 08:56:40
(UTC+02:00)

Cosmos 2058 - Visible Passes

Search period start: 02 September 2014 00:00
Search period end: 12 September 2014 00:00
Orbit: 570 x 595 km, 82.5° (Epoch: 01 September)

Date Brightness Start Highest point End Pass type
(mag) Time Alt. Az. Time Alt. Az. Time Alt. Az.
02 Sep 6.0 00:19:28 10° NNW 00:19:58 13° NNW 00:19:58 13° NNW visible
02 Sep 5.4 22:48:29 10° NNE 22:49:20 14° NNE 22:49:20 14° NNE visible
03 Sep 6.1 00:25:32 10° NNW 00:25:43 11° NW 00:25:43 11° NW visible
03 Sep 5.3 22:54:01 10° N 22:55:05 17° NNE 22:55:05 17° NNE visible
04 Sep 5.3 22:59:39 10° N 23:00:51 18° N 23:00:51 18° N visible
05 Sep 5.3 23:05:21 10° N 23:06:38 19° N 23:06:38 19° N visible
06 Sep 5.4 23:11:08 10° N 23:12:24 20° NNW 23:12:24 20° NNW visible
07 Sep 5.4 21:41:38 10° NE 21:41:49 10° NE 21:41:49 10° NE visible
07 Sep 5.5 23:16:59 10° NNW 23:18:12 19° NNW 23:18:12 19° NNW visible
08 Sep 5.2 21:46:40 10° NNE 21:47:37 14° NE 21:47:37 14° NE visible
08 Sep 5.6 23:22:55 10° NNW 23:24:00 17° NNW 23:24:00 17° NNW visible
09 Sep 5.0 21:52:01 10° NNE 21:53:26 17° NE 21:53:26 17° NE visible
09 Sep 5.8 23:28:56 10° NNW 23:29:49 15° NW 23:29:49 15° NW visible
10 Sep 4.7 21:57:30 10° N 21:59:16 21° NNE 21:59:16 21° NNE visible
10 Sep 6.0 23:35:06 10° NW 23:35:39 12° NW 23:35:39 12° NW visible
11 Sep 4.6 22:03:06 10° N 22:05:06 26° NNE 22:05:06 26° NNE visible
